Radiation Dose at Monitoring Post of Fukushima Daini Nuclear Power Station
Date,Time,MP-1(microSv/h),MP-2(microSv/h),MP-3(microSv/h),MP-4(microSv/h),MP-5(microSv/h),MP-6(microSv/h),MP-7(microSv/h),Wind Direction,Wind Velocity(m/s),Rain
2017/04/14,00:00,0.377,0.232,0.390,0.360,0.329,0.191,0.161,west,2.8,No
2017/04/14,00:10,0.380,0.234,0.389,0.360,0.329,0.190,0.162,west-southwest,1.4,No
2017/04/14,00:20,0.378,0.233,0.391,0.360,0.329,0.190,0.161,south,1.4,No
2017/04/14,00:30,0.378,0.233,0.391,0.360,0.329,0.191,0.161,southeast,1.3,No
2017/04/14,00:40,0.378,0.232,0.390,0.360,0.329,0.192,0.161,south-southeast,2.5,No
2017/04/14,00:50,0.379,0.232,0.390,0.360,0.329,0.191,0.161,southeast,2.2,No
2017/04/14,01:00,0.379,0.232,0.391,0.360,0.329,0.191,0.161,east-southeast,1.6,No
2017/04/14,01:10,0.378,0.233,0.391,0.361,0.329,0.191,0.160,south-southeast,1.4,No
2017/04/14,01:20,0.378,0.232,0.391,0.361,0.330,0.190,0.161,southwest,0.8,No
2017/04/14,01:30,0.378,0.234,0.391,0.360,0.328,0.191,0.162,-,CALM,No
2017/04/14,01:40,0.379,0.233,0.391,0.361,0.330,0.190,0.162,west-northwest,1.1,No
2017/04/14,01:50,0.379,0.235,0.390,0.362,0.328,0.190,0.161,northwest,1.6,No
2017/04/14,02:00,0.377,0.233,0.392,0.360,0.328,0.190,0.161,west,1.3,No
2017/04/14,02:10,0.378,0.233,0.390,0.359,0.329,0.191,0.161,-,CALM,No
2017/04/14,02:20,0.379,0.232,0.390,0.361,0.330,0.191,0.162,east-southeast,0.8,No
2017/04/14,02:30,0.378,0.234,0.389,0.361,0.331,0.190,0.162,south,0.9,No
2017/04/14,02:40,0.377,0.233,0.390,0.360,0.329,0.192,0.162,west-southwest,1.9,No
2017/04/14,02:50,0.379,0.233,0.391,0.359,0.330,0.190,0.161,northwest,0.5,No
2017/04/14,03:00,0.378,0.233,0.392,0.361,0.329,0.190,0.162,west-southwest,1.3,No
2017/04/14,03:10,0.379,0.233,0.390,0.360,0.329,0.190,0.161,west-northwest,0.8,No
2017/04/14,03:20,0.376,0.233,0.391,0.360,0.328,0.191,0.160,northwest,1.3,No
2017/04/14,03:30,0.377,0.232,0.389,0.361,0.329,0.191,0.160,west-northwest,2.4,No
2017/04/14,03:40,0.378,0.232,0.390,0.360,0.330,0.191,0.161,west,2.4,No
2017/04/14,03:50,0.378,0.233,0.390,0.360,0.329,0.190,0.162,west,3.3,No
2017/04/14,04:00,0.378,0.233,0.390,0.361,0.329,0.191,0.161,west-southwest,4.2,No
2017/04/14,04:10,0.378,0.233,0.390,0.359,0.330,0.190,0.161,southwest,6.2,No
2017/04/14,04:20,0.378,0.234,0.391,0.361,0.330,0.190,0.161,west-southwest,7.3,No
2017/04/14,04:30,0.380,0.233,0.391,0.361,0.329,0.191,0.162,west-southwest,7.9,No
2017/04/14,04:40,0.378,0.233,0.392,0.360,0.329,0.192,0.161,west-southwest,4.2,No
2017/04/14,04:50,0.377,0.232,0.389,0.360,0.329,0.191,0.162,south-southeast,4.2,No
2017/04/14,05:00,0.376,0.233,0.391,0.360,0.329,0.191,0.161,south-southeast,4.5,No
2017/04/14,05:10,0.378,0.234,0.392,0.359,0.329,0.191,0.162,south,3.1,No
2017/04/14,05:20,0.378,0.234,0.392,0.361,0.329,0.191,0.161,south-southeast,3.1,No
2017/04/14,05:30,0.379,0.233,0.390,0.360,0.329,0.190,0.162,southeast,2.0,No
2017/04/14,05:40,0.377,0.232,0.389,0.358,0.330,0.190,0.162,south-southwest,0.8,No
2017/04/14,05:50,0.378,0.234,0.389,0.361,0.328,0.191,0.161,west-southwest,1.9,No
2017/04/14,06:00,0.378,0.235,0.391,0.359,0.328,0.191,0.161,southwest,2.8,No
2017/04/14,06:10,0.377,0.234,0.389,0.360,0.329,0.191,0.161,west-southwest,4.3,No
2017/04/14,06:20,0.377,0.233,0.391,0.361,0.328,0.191,0.162,southwest,4.9,No
2017/04/14,06:30,0.378,0.233,0.391,0.362,0.329,0.190,0.161,southwest,4.8,No
2017/04/14,06:40,0.379,0.234,0.390,0.360,0.330,0.192,0.161,southwest,3.4,No
2017/04/14,06:50,0.377,0.233,0.390,0.360,0.330,0.191,0.162,south,4.2,No
2017/04/14,07:00,0.379,0.233,0.391,0.361,0.329,0.191,0.160,south-southwest,4.7,No
2017/04/14,07:10,0.378,0.233,0.391,0.358,0.331,0.190,0.160,south-southwest,4.0,No
2017/04/14,07:20,0.377,0.232,0.387,0.360,0.329,0.191,0.160,south,3.8,No
2017/04/14,07:30,0.377,0.232,0.389,0.359,0.330,0.191,0.161,south,5.5,No
2017/04/14,07:40,0.379,0.231,0.388,0.359,0.330,0.190,0.159,south,6.1,No
2017/04/14,07:50,0.377,0.232,0.388,0.360,0.327,0.190,0.160,south,7.2,No
2017/04/14,08:00,0.377,0.233,0.392,0.359,0.330,0.190,0.160,south,7.8,No
2017/04/14,08:10,0.380,0.231,0.390,0.359,0.329,0.190,0.160,south,8.9,No
2017/04/14,08:20,0.376,0.233,0.390,0.358,0.329,0.190,0.160,south,9.0,No
2017/04/14,08:30,0.379,0.232,0.390,0.357,0.329,0.190,0.160,south,8.9,No
2017/04/14,08:40,0.375,0.233,0.389,0.360,0.327,0.190,0.161,south,9.8,No
2017/04/14,08:50,0.377,0.232,0.390,0.357,0.333,0.191,0.161,south,9.8,No
2017/04/14,09:00,0.374,0.234,0.389,0.360,0.327,0.190,0.161,south,10.1,No
2017/04/14,09:10,0.376,0.233,0.389,0.359,0.330,0.190,0.160,south,9.8,No
2017/04/14,09:20,0.376,0.234,0.389,0.361,0.328,0.190,0.161,south,10.6,No
2017/04/14,09:30,0.375,0.232,0.389,0.360,0.329,0.191,0.161,south,9.7,No
2017/04/14,09:40,0.377,0.234,0.390,0.358,0.328,0.190,0.161,south,9.7,No
2017/04/14,09:50,0.374,0.234,0.390,0.361,0.328,0.191,0.161,south,9.1,No
2017/04/14,10:00,0.379,0.233,0.390,0.358,0.329,0.190,0.160,south,10.1,No
2017/04/14,10:10,0.375,0.232,0.387,0.362,0.329,0.191,0.162,south,9.5,No
2017/04/14,10:20,0.377,0.234,0.391,0.359,0.330,0.191,0.160,south,9.2,No
2017/04/14,10:30,0.378,0.232,0.389,0.360,0.327,0.191,0.161,south,7.7,No
2017/04/14,10:40,0.373,0.234,0.391,0.361,0.329,0.191,0.161,south,9.5,No
2017/04/14,10:50,0.378,0.233,0.387,0.359,0.326,0.191,0.160,south,11.1,No
2017/04/14,11:00,0.373,0.235,0.391,0.360,0.331,0.189,0.161,south,11.3,No
2017/04/14,11:10,0.377,0.234,0.389,0.358,0.327,0.191,0.161,south,12.3,No
2017/04/14,11:20,0.378,0.234,0.387,0.362,0.329,0.190,0.162,south,12.0,No
2017/04/14,11:30,0.376,0.233,0.390,0.360,0.329,0.190,0.161,south,12.1,No
2017/04/14,11:40,0.378,0.234,0.387,0.360,0.329,0.191,0.162,south,12.5,No
2017/04/14,11:50,0.376,0.233,0.391,0.361,0.331,0.189,0.161,south,14.3,No
2017/04/14,12:00,0.375,0.233,0.388,0.360,0.329,0.190,0.161,south,13.4,No
2017/04/14,12:10,0.377,0.233,0.388,0.362,0.330,0.190,0.161,south,15.7,No
2017/04/14,12:20,0.374,0.233,0.391,0.358,0.328,0.191,0.161,south,14.0,No
2017/04/14,12:30,0.377,0.233,0.388,0.362,0.331,0.190,0.162,south,13.1,No
2017/04/14,12:40,0.378,0.233,0.390,0.360,0.329,0.191,0.161,south,11.8,No
2017/04/14,12:50,0.375,0.234,0.390,0.360,0.329,0.190,0.161,south,11.6,No
2017/04/14,13:00,0.380,0.234,0.388,0.361,0.330,0.191,0.162,south-southwest,14.6,No
2017/04/14,13:10,0.377,0.235,0.394,0.358,0.328,0.190,0.162,south-southwest,13.8,No
2017/04/14,13:20,0.377,0.235,0.390,0.363,0.330,0.191,0.162,south-southwest,13.7,No
2017/04/14,13:30,0.379,0.234,0.386,0.361,0.328,0.191,0.160,south,12.8,No
2017/04/14,13:40,0.374,0.235,0.391,0.362,0.327,0.190,0.162,south,12.1,No
2017/04/14,13:50,0.378,0.235,0.390,0.363,0.330,0.192,0.162,south-southwest,11.5,No
2017/04/14,14:00,0.379,0.235,0.387,0.358,0.327,0.192,0.162,south-southwest,10.8,No
2017/04/14,14:10,0.375,0.234,0.389,0.362,0.327,0.190,0.162,south-southwest,12.3,No
2017/04/14,14:20,0.376,0.235,0.391,0.361,0.332,0.191,0.160,south-southwest,12.3,No
2017/04/14,14:30,0.377,0.236,0.388,0.360,0.329,0.191,0.162,south,13.1,No
2017/04/14,14:40,0.375,0.234,0.388,0.364,0.325,0.189,0.161,south,14.4,No
2017/04/14,14:50,0.378,0.236,0.392,0.361,0.331,0.191,0.162,south,15.4,No
2017/04/14,15:00,0.378,0.234,0.389,0.362,0.328,0.189,0.162,south,14.1,No
2017/04/14,15:10,0.379,0.235,0.392,0.362,0.332,0.191,0.161,south,13.1,No
2017/04/14,15:20,0.380,0.234,0.390,0.364,0.331,0.191,0.162,south,12.9,No
2017/04/14,15:30,0.376,0.236,0.393,0.361,0.329,0.191,0.161,south,12.3,No
2017/04/14,15:40,0.380,0.236,0.389,0.365,0.331,0.190,0.162,south,11.6,No
2017/04/14,15:50,0.377,0.234,0.394,0.362,0.328,0.190,0.162,south,11.0,No
2017/04/14,16:00,0.379,0.234,0.391,0.364,0.330,0.192,0.162,south,9.5,No
2017/04/14,16:10,0.378,0.237,0.393,0.362,0.332,0.191,0.162,south,9.6,No
2017/04/14,16:20,0.378,0.235,0.389,0.364,0.328,0.191,0.161,south,10.0,No
2017/04/14,16:30,0.380,0.235,0.392,0.362,0.332,0.191,0.161,south-southwest,10.9,No
2017/04/14,16:40,0.377,0.236,0.391,0.364,0.329,0.190,0.162,south-southwest,10.4,No
2017/04/14,16:50,0.378,0.236,0.391,0.361,0.329,0.190,0.161,south-southwest,9.1,No
2017/04/14,17:00,0.376,0.237,0.392,0.363,0.331,0.191,0.162,south-southwest,9.6,No
2017/04/14,17:10,0.381,0.236,0.391,0.361,0.327,0.192,0.160,south-southwest,8.6,No
2017/04/14,17:20,0.377,0.236,0.392,0.363,0.331,0.190,0.161,southwest,5.7,No
2017/04/14,17:30,0.380,0.236,0.391,0.361,0.329,0.191,0.163,south-southwest,6.8,No
2017/04/14,17:40,0.376,0.236,0.390,0.362,0.332,0.190,0.161,south-southwest,6.7,No
2017/04/14,17:50,0.380,0.236,0.391,0.361,0.329,0.191,0.162,south-southwest,9.4,No
2017/04/14,18:00,0.376,0.236,0.392,0.365,0.331,0.191,0.162,southwest,9.4,No
2017/04/14,18:10,0.379,0.236,0.392,0.363,0.329,0.192,0.162,southwest,10.0,No
2017/04/14,18:20,0.377,0.235,0.392,0.364,0.333,0.191,0.162,southwest,9.8,No
2017/04/14,18:30,0.377,0.236,0.392,0.362,0.329,0.191,0.162,southwest,10.4,No
2017/04/14,18:40,0.377,0.236,0.391,0.362,0.331,0.191,0.162,southwest,11.1,No
2017/04/14,18:50,0.378,0.235,0.393,0.363,0.329,0.191,0.162,southwest,10.3,No
2017/04/14,19:00,0.377,0.237,0.390,0.363,0.331,0.191,0.161,southwest,9.2,No
2017/04/14,19:10,0.378,0.235,0.393,0.362,0.330,0.191,0.162,southwest,7.2,No
2017/04/14,19:20,0.379,0.236,0.391,0.364,0.331,0.192,0.162,southwest,7.5,No
2017/04/14,19:30,0.377,0.236,0.393,0.364,0.331,0.191,0.162,southwest,6.7,No
2017/04/14,19:40,0.380,0.235,0.393,0.362,0.330,0.191,0.162,southwest,7.3,No
2017/04/14,19:50,0.376,0.236,0.392,0.364,0.331,0.191,0.162,southwest,8.7,No
2017/04/14,20:00,0.380,0.237,0.393,0.362,0.328,0.191,0.162,west-southwest,7.3,No
2017/04/14,20:10,0.378,0.236,0.393,0.362,0.331,0.191,0.162,southwest,8.3,No
2017/04/14,20:20,0.378,0.235,0.394,0.362,0.330,0.191,0.162,southwest,8.5,No
2017/04/14,20:30,0.379,0.237,0.390,0.366,0.332,0.191,0.163,west-southwest,7.5,No
2017/04/14,20:40,0.378,0.236,0.393,0.363,0.329,0.191,0.162,west-southwest,7.7,No
2017/04/14,20:50,0.380,0.237,0.391,0.364,0.331,0.192,0.163,west-southwest,8.2,No
2017/04/14,21:00,0.378,0.238,0.392,0.363,0.330,0.192,0.163,west-southwest,10.1,No
2017/04/14,21:10,0.378,0.237,0.391,0.363,0.331,0.191,0.163,west-southwest,10.3,No
2017/04/14,21:20,0.377,0.237,0.392,0.364,0.331,0.192,0.163,west-southwest,8.6,No
2017/04/14,21:30,0.379,0.235,0.391,0.363,0.329,0.192,0.162,west-southwest,8.9,No
2017/04/14,21:40,0.380,0.236,0.392,0.365,0.330,0.192,0.162,west-southwest,7.8,No
2017/04/14,21:50,0.376,0.237,0.393,0.363,0.329,0.191,0.162,west-southwest,6.3,No
2017/04/14,22:00,0.378,0.236,0.391,0.363,0.331,0.192,0.163,west-southwest,6.5,No
2017/04/14,22:10,0.377,0.237,0.393,0.363,0.330,0.192,0.162,southwest,5.9,No
2017/04/14,22:20,0.378,0.237,0.392,0.363,0.332,0.191,0.163,southwest,6.3,No
2017/04/14,22:30,0.378,0.236,0.392,0.363,0.331,0.191,0.163,southwest,5.6,No
2017/04/14,22:40,0.379,0.235,0.392,0.362,0.330,0.192,0.162,southwest,6.1,No
2017/04/14,22:50,0.379,0.236,0.393,0.365,0.331,0.192,0.163,south-southwest,5.9,No
2017/04/14,23:00,0.380,0.237,0.394,0.364,0.330,0.192,0.163,south-southwest,5.3,No
2017/04/14,23:10,0.378,0.235,0.392,0.363,0.334,0.193,0.164,south-southwest,6.7,No
2017/04/14,23:20,0.379,0.237,0.393,0.364,0.330,0.192,0.162,south-southwest,4.2,No
2017/04/14,23:30,0.378,0.236,0.393,0.361,0.332,0.191,0.162,south-southwest,5.5,No
2017/04/14,23:40,0.380,0.237,0.391,0.365,0.330,0.193,0.162,south-southwest,5.9,No
2017/04/14,23:50,0.380,0.236,0.394,0.362,0.330,0.191,0.164,south-southwest,6.4,No
